Date String (YYYY-MM-DD hh:mm:ss) UTC,Instrument flags,absolute air pressure of the measurement (hPa),sample flow rate (lpm),inlet stack bypass flow (lpm),air temperature of the measurement (°C),ambient temperature measured by the external sensor (°C),aerosol sample conditioner tube jacket temperature (°C),OPC LED temperature (°C),internal box temperature (°C),relative humidity of the measurement (%),span deviation,mass concentration of particles derived from Lorenz-Mie calculation of OPC scattering (μg/m³),mass concentration of particles derived from Lorenz-Mie calculation of OPC scattering (μg/m³),mass concentration of particles derived from Lorenz-Mie calculation of OPC scattering (μg/m³)
DateTimeUTC,F1_M11,P_M11,Q1_M11,Q2_M11,T1_M11,T2_M11,T3_M11,T4_M11,T5_M11,U1_M11,ZSPAN_M11,X2_M11,X0_M11,X1_M11
2024-02-20 08:00:00,SystemResetWarning,0827.7,4.98,000.00,022.2,021.6,000.0,030.8,024.1,13.7,0000.0,0002.68,0008.28,0002.07
2024-02-20 08:01:00,SystemResetWarning,0827.7,4.99,000.00,022.2,021.6,000.0,030.8,024.1,13.6,0000.0,0002.62,0007.75,0002.04
2024-02-20 08:02:00,SystemResetWarning,0827.6,5.01,000.00,022.2,021.6,000.0,030.8,024.1,13.6,0000.0,0002.55,0007.64,0001.98
2024-02-20 08:03:00,SystemResetWarning,0827.7,5.00,000.00,022.2,021.6,000.0,030.8,024.1,13.6,0000.0,0002.46,0007.32,0001.94
2024-02-20 08:04:00,SystemResetWarning,0827.8,5.01,000.00,022.2,021.6,000.0,030.8,024.1,13.7,0000.0,0002.43,0006.70,0001.92
2024-02-20 08:05:00,SystemResetWarning,0827.8,5.00,000.00,022.2,021.5,000.0,030.8,024.0,13.8,0000.0,0002.42,0007.29,0001.90
2024-02-20 08:06:00,SystemResetWarning,0827.8,5.00,000.00,022.2,021.5,000.0,030.8,024.0,13.8,0000.0,0002.42,0007.62,0001.91
2024-02-20 08:07:00,SystemResetWarning,0827.7,4.99,000.00,022.2,021.5,000.0,030.8,024.0,13.4,0000.0,0002.44,0007.20,0001.92
2024-02-20 08:08:00,SystemResetWarning,0827.7,5.00,000.00,022.2,021.5,000.0,030.8,024.0,13.5,0000.0,0002.48,0007.72,0001.97
2024-02-20 08:09:00,SystemResetWarning,0827.7,4.99,000.00,022.1,021.5,000.0,030.7,024.0,13.5,0000.0,0002.53,0007.90,0002.00
2024-02-20 08:10:00,SystemResetWarning,0827.8,5.01,000.00,022.1,021.5,000.0,030.7,024.0,13.6,0000.0,0002.58,0007.66,0002.02
2024-02-20 08:11:00,SystemResetWarning,0827.8,5.01,000.00,022.1,021.4,000.0,030.7,023.9,13.7,0000.0,0002.70,0007.24,0002.13
2024-02-20 08:12:00,SystemResetWarning,0827.7,5.00,000.00,022.1,021.4,000.0,030.7,023.9,13.7,0000.0,0002.89,0007.25,0002.27
2024-02-20 08:13:00,SystemResetWarning,0827.9,5.00,000.00,022.1,021.4,000.0,030.7,023.9,13.8,0000.0,0003.11,0007.74,0002.43
2024-02-20 08:14:00,SystemResetWarning,0828.1,5.00,000.00,022.1,021.4,000.0,030.7,023.9,13.8,0000.0,0003.20,0007.87,0002.58
2024-02-20 08:15:00,SystemResetWarning,0827.8,5.00,000.00,022.1,021.4,000.0,030.7,023.9,13.8,0000.0,0003.27,0008.83,0002.68
2024-02-20 08:16:00,SystemResetWarning,0827.9,5.00,000.00,022.0,021.4,000.0,030.7,023.9,13.8,0000.0,0003.31,0008.74,0002.75
2024-02-20 08:17:00,SystemResetWarning,0828.1,5.00,000.00,022.0,021.4,000.0,030.7,023.9,13.8,0000.0,0003.33,0009.37,0002.78
2024-02-20 08:18:00,SystemResetWarning,0827.9,5.00,000.00,022.0,021.4,000.0,030.7,023.9,13.8,0000.0,0003.36,0009.86,0002.82
2024-02-20 08:19:00,SystemResetWarning,0827.8,5.00,000.00,022.0,021.4,000.0,030.7,023.9,13.8,0000.0,0003.39,0009.61,0002.85
2024-02-20 08:20:00,SystemResetWarning,0827.7,5.00,000.00,022.0,021.4,000.0,030.6,023.9,13.8,0000.0,0003.40,0009.32,0002.90
2024-02-20 08:21:00,SystemResetWarning,0827.7,5.00,000.00,022.0,021.4,000.0,030.6,023.9,13.8,0000.0,0003.40,0009.29,0002.95
2024-02-20 08:22:00,SystemResetWarning,0827.8,5.01,000.00,022.0,021.4,000.0,030.6,023.9,13.8,0000.0,0003.41,0009.39,0002.97
2024-02-20 08:23:00,SystemResetWarning,0827.9,5.01,000.00,022.0,021.4,000.0,030.6,023.9,13.7,0000.0,0003.42,0010.08,0002.98
2024-02-20 08:24:00,SystemResetWarning,0827.8,5.00,000.00,022.0,021.4,000.0,030.6,023.9,13.7,0000.0,0003.40,0010.96,0003.01
2024-02-20 08:25:00,SystemResetWarning,0828.0,4.99,000.00,022.0,021.4,000.0,030.6,023.9,13.7,0000.0,0003.38,0011.96,0002.99
2024-02-20 08:26:00,SystemResetWarning,0828.1,4.99,000.00,022.0,021.4,000.0,030.6,023.9,13.7,0000.0,0003.37,0011.59,0002.98
2024-02-20 08:27:00,SystemResetWarning,0828.1,4.99,000.00,022.0,021.3,000.0,030.6,023.8,13.6,0000.0,0003.40,0011.33,0003.02
2024-02-20 08:28:00,SystemResetWarning,0828.0,5.00,000.00,022.0,021.3,000.0,030.6,023.7,13.2,0000.0,0003.41,0010.42,0003.07
2024-02-20 08:29:00,SystemResetWarning,0827.7,5.01,000.00,022.0,021.3,000.0,030.6,023.7,13.2,0000.0,0003.44,0010.26,0003.10
2024-02-20 08:30:00,SystemResetWarning,0827.8,5.01,000.00,021.9,021.2,000.0,030.5,023.7,13.3,0000.0,0003.42,0011.35,0003.11
2024-02-20 08:31:00,SystemResetWarning,0827.8,5.01,000.00,021.9,021.2,000.0,030.5,023.7,14.0,0000.0,0003.42,0011.71,0003.11
2024-02-20 08:32:00,SystemResetWarning,0827.8,5.00,000.00,021.9,021.2,000.0,030.5,023.7,13.8,0000.0,0003.45,0012.03,0003.10
2024-02-20 08:33:00,SystemResetWarning,0827.8,5.00,000.00,021.9,021.2,000.0,030.5,023.7,13.5,0000.0,0003.45,0012.56,0003.10
2024-02-20 08:34:00,SystemResetWarning,0828.0,5.00,000.00,021.9,021.2,000.0,030.5,023.7,13.5,0000.0,0003.44,0011.92,0003.10
2024-02-20 08:35:00,SystemResetWarning,0827.8,5.00,000.00,021.9,021.2,000.0,030.5,023.7,13.6,0000.0,0003.42,0010.80,0003.09
2024-02-20 08:36:00,SystemResetWarning,0827.8,5.00,000.00,021.9,021.2,000.0,030.5,023.7,13.5,0000.0,0003.44,0009.88,0003.09
2024-02-20 08:37:00,SystemResetWarning,0827.7,4.99,000.00,021.9,021.2,000.0,030.5,023.7,13.4,0000.0,0003.44,0009.60,0003.05
2024-02-20 08:38:00,SystemResetWarning,0827.8,5.01,000.00,021.9,021.2,000.0,030.5,023.7,13.5,0000.0,0003.42,0010.22,0003.01
2024-02-20 08:39:00,SystemResetWarning,0827.8,5.00,000.00,021.9,021.2,000.0,030.5,023.8,13.8,0000.0,0003.43,0010.35,0002.96
2024-02-20 08:40:00,SystemResetWarning,0827.7,5.01,000.00,021.9,021.3,000.0,030.5,023.8,13.7,0000.0,0003.40,0010.31,0002.92
2024-02-20 08:41:00,SystemResetWarning,0827.7,5.00,000.00,021.9,021.3,000.0,030.5,023.8,13.6,0000.0,0003.38,0009.24,0002.88
2024-02-20 08:42:00,SystemResetWarning,0827.6,4.99,000.00,021.9,021.3,000.0,030.5,023.8,13.5,0000.0,0003.35,0008.82,0002.82
2024-02-20 08:43:00,SystemResetWarning,0827.8,5.00,000.00,021.9,021.3,000.0,030.5,023.8,13.5,0000.0,0003.30,0008.55,0002.78
2024-02-20 08:44:00,SystemResetWarning,0827.8,4.99,000.00,021.9,021.3,000.0,030.5,023.8,13.9,0000.0,0003.30,0007.98,0002.74
2024-02-20 08:45:00,SystemResetWarning,0827.8,5.00,000.00,021.9,021.3,000.0,030.5,023.8,13.9,0000.0,0003.25,0008.04,0002.69
2024-02-20 08:46:00,SystemResetWarning,0827.7,5.01,000.00,021.9,021.3,000.0,030.4,023.8,13.7,0000.0,0003.22,0008.24,0002.64
2024-02-20 08:47:00,SystemResetWarning,0827.7,5.01,000.00,021.9,021.3,000.0,030.4,023.8,13.6,0000.0,0003.18,0008.51,0002.58
2024-02-20 08:48:00,SystemResetWarning,0827.6,5.00,000.00,021.9,021.3,000.0,030.4,023.8,13.5,0000.0,0003.19,0008.39,0002.60
2024-02-20 08:49:00,SystemResetWarning,0827.5,5.01,000.00,021.9,021.3,000.0,030.4,023.8,13.4,0000.0,0003.19,0008.36,0002.59
2024-02-20 08:50:00,SystemResetWarning,0827.7,4.99,000.00,021.9,021.3,000.0,030.4,023.8,13.2,0000.0,0003.16,0008.30,0002.56
2024-02-20 08:51:00,SystemResetWarning,0827.8,4.99,000.00,021.9,021.3,000.0,030.4,023.8,13.4,0000.0,0003.12,0007.97,0002.53
2024-02-20 08:52:00,SystemResetWarning,0827.9,5.00,000.00,021.9,021.3,000.0,030.4,023.8,13.7,0000.0,0003.13,0008.20,0002.52
2024-02-20 08:53:00,SystemResetWarning,0827.9,5.01,000.00,021.9,021.2,000.0,030.4,023.8,13.7,0000.0,0003.14,0008.40,0002.52
2024-02-20 08:54:00,SystemResetWarning,0827.7,5.00,000.00,021.9,021.2,000.0,030.4,023.7,13.5,0000.0,0003.14,0009.22,0002.52
2024-02-20 08:55:00,SystemResetWarning,0827.5,5.00,000.00,021.9,021.2,000.0,030.4,023.7,13.4,0000.0,0003.11,0009.15,0002.51
2024-02-20 08:56:00,SystemResetWarning,0827.6,5.01,000.00,021.8,021.2,000.0,030.4,023.7,13.2,0000.0,0003.11,0009.03,0002.50
2024-02-20 08:57:00,SystemResetWarning,0827.7,5.01,000.00,021.8,021.2,000.0,030.4,023.7,13.1,0000.0,0003.12,0009.66,0002.49
2024-02-20 08:58:00,SystemResetWarning,0827.8,5.01,000.00,021.8,021.2,000.0,030.4,023.7,13.4,0000.0,0003.09,0009.44,0002.47
2024-02-20 08:59:00,SystemResetWarning,0827.8,4.99,000.00,021.8,021.2,000.0,030.4,023.7,13.5,0000.0,0003.04,0009.23,0002.44
